Hourly Data Report for October 21, 2014

All times are specified in Local Standard Time (LST). Add 1 hour to adjust for Daylight Saving Time where and when it is observed.

PANGNIRTUNG
NUNAVUT

66°08'36.300" N
65°42'40.500" W
22.60 m
2403049
71826
WXP

Download Data

Hourly Data (October 2014)
Hourly Data Report for October 21, 2014
Temp Definition
°C
Dew Point Temp Definition
°C
Rel Hum Definition
%
Wind Dir Definition
10's deg

Wind Spd Definition
km/h
Visibility Definition
km
Stn Press Definition
kPa
Hmdx Definition


Wind Chill Definition


Weather Definition


TIME
00:00 -7.7 -9.1 90 32 8   100.52   -12 LegendNANA
01:00 -8.1 -9.3 91 33 15   100.46   -14 LegendNANA
02:00 -7.9 -9.7 87 4 1   100.39   -8 LegendNANA
03:00 -8.0 -9.6 89 33 6   100.31   -11 LegendNANA
04:00 -7.9 -10.0 85 6 4   100.25   -10 LegendNANA
05:00 -8.2 -10.3 85 13 4   100.21   -10 LegendNANA
06:00 -7.9 -9.9 86 14 3   100.18   -9 LegendNANA
07:00 -7.4 -10.2 80 12 6   100.14   -11 LegendNANA
08:00 -7.3 -9.9 82 14 3   100.12   -9 LegendNANA
09:00 -6.9 -9.2 83   0   100.09     LegendNANA
10:00 -6.3 -9.0 81 14 3   100.07   -8 LegendNANA
11:00 -5.9 -8.5 82 8 4   100.05   -8 LegendNANA
12:00 -6.6 -8.9 84 14 5   100.05   -9 LegendNANA
13:00 -5.5 -8.0 83   0   100.09     LegendNANA
14:00 -5.5 -7.5 86 17 2   100.09   -6 LegendNANA
15:00 -5.9 -7.9 86 25 2   100.11   -7 LegendNANA
16:00 -5.0 -7.0 86 24 4   100.15   -7 LegendNANA
17:00 -4.4 -6.7 84 23 8   100.17   -8 LegendNANA
18:00 -4.5 -5.8 91 23 15   100.23   -10 LegendNANA
19:00 -4.0 -5.8 88 22 12   100.24   -9 LegendNANA
20:00 -3.8 -5.3 89 26 10   100.27   -8 LegendNANA
21:00 -4.0 -5.4 90 23 8   100.27   -7 LegendNANA
22:00 -3.7 -6.0 84 24 18   100.29   -10 LegendNANA
23:00 -4.1 -6.2 85 24 19   100.34   -10 LegendNANA

Notes on Data Quality.

Legend

  • E = Estimated
  • M = Missing
  • NA = Not Available
  • ‡ = Partner data that is not subject to review by the National Climate Archives
Date modified: